Year,Month,Day,Hour,Minute,Value (Times are PST for insolation in W/m^2)
2021,12,24,00,00,0.00
2021,12,24,00,01,0.00
2021,12,24,00,02,0.00
2021,12,24,00,03,0.00
2021,12,24,00,04,0.00
2021,12,24,00,05,0.00
2021,12,24,00,06,0.00
2021,12,24,00,07,0.00
2021,12,24,00,08,0.00
2021,12,24,00,09,0.00
2021,12,24,00,10,0.00
2021,12,24,00,11,0.00
2021,12,24,00,12,0.00
2021,12,24,00,13,0.00
2021,12,24,00,14,0.00
2021,12,24,00,15,0.00
2021,12,24,00,16,0.00
2021,12,24,00,17,0.00
2021,12,24,00,18,0.00
2021,12,24,00,19,0.00
2021,12,24,00,20,0.00
2021,12,24,00,21,0.00
2021,12,24,00,22,0.00
2021,12,24,00,23,0.00
2021,12,24,00,24,0.00
2021,12,24,00,25,0.00
2021,12,24,00,26,0.00
2021,12,24,00,27,0.00
2021,12,24,00,28,0.00
2021,12,24,00,29,0.00
2021,12,24,00,30,0.00
2021,12,24,00,31,0.00
2021,12,24,00,32,0.00
2021,12,24,00,33,0.00
2021,12,24,00,34,0.00
2021,12,24,00,35,0.00
2021,12,24,00,36,0.00
2021,12,24,00,37,0.00
2021,12,24,00,38,0.00
2021,12,24,00,39,0.00
2021,12,24,00,40,0.00
2021,12,24,00,41,0.00
2021,12,24,00,42,0.00
2021,12,24,00,43,0.00
2021,12,24,00,44,0.00
2021,12,24,00,45,0.00
2021,12,24,00,46,0.00
2021,12,24,00,47,0.00
2021,12,24,00,48,0.00
2021,12,24,00,49,0.00
2021,12,24,00,50,0.00
2021,12,24,00,51,0.00
2021,12,24,00,52,0.00
2021,12,24,00,53,0.00
2021,12,24,00,54,0.00
2021,12,24,00,55,0.00
2021,12,24,00,56,0.00
2021,12,24,00,57,0.00
2021,12,24,00,58,0.00
2021,12,24,00,59,0.00
2021,12,24,01,00,0.00
2021,12,24,01,01,0.00
2021,12,24,01,02,0.00
2021,12,24,01,03,0.00
2021,12,24,01,04,0.00
2021,12,24,01,05,0.00
2021,12,24,01,06,0.00
2021,12,24,01,07,0.00
2021,12,24,01,08,0.00
2021,12,24,01,09,0.00
2021,12,24,01,10,0.00
2021,12,24,01,11,0.00
2021,12,24,01,12,0.00
2021,12,24,01,13,0.00
2021,12,24,01,14,0.00
2021,12,24,01,15,0.00
2021,12,24,01,16,0.00
2021,12,24,01,17,0.00
2021,12,24,01,18,0.00
2021,12,24,01,19,0.00
2021,12,24,01,20,0.00
2021,12,24,01,21,0.00
2021,12,24,01,22,0.00
2021,12,24,01,23,0.00
2021,12,24,01,24,0.00
2021,12,24,01,25,0.00
2021,12,24,01,26,0.00
2021,12,24,01,27,0.00
2021,12,24,01,28,0.00
2021,12,24,01,29,0.00
2021,12,24,01,30,0.00
2021,12,24,01,31,0.00
2021,12,24,01,32,0.00
2021,12,24,01,33,0.00
2021,12,24,01,34,0.00
2021,12,24,01,35,0.00
2021,12,24,01,36,0.00
2021,12,24,01,37,0.00
2021,12,24,01,38,0.00
2021,12,24,01,39,0.00
2021,12,24,01,40,0.00
2021,12,24,01,41,0.00
2021,12,24,01,42,0.00
2021,12,24,01,43,0.00
2021,12,24,01,44,0.00
2021,12,24,01,45,0.00
2021,12,24,01,46,0.00
2021,12,24,01,47,0.00
2021,12,24,01,48,0.00
2021,12,24,01,49,0.00
2021,12,24,01,50,0.00
2021,12,24,01,51,0.00
2021,12,24,01,52,0.00
2021,12,24,01,53,0.00
2021,12,24,01,54,0.00
2021,12,24,01,55,0.00
2021,12,24,01,56,0.00
2021,12,24,01,57,0.00
2021,12,24,01,58,0.00
2021,12,24,01,59,0.00
2021,12,24,02,00,0.00
2021,12,24,02,01,0.00
2021,12,24,02,02,0.00
2021,12,24,02,03,0.00
2021,12,24,02,04,0.00
2021,12,24,02,05,0.00
2021,12,24,02,06,0.00
2021,12,24,02,07,0.00
2021,12,24,02,08,0.00
2021,12,24,02,09,0.00
2021,12,24,02,10,0.00
2021,12,24,02,11,0.00
2021,12,24,02,12,0.00
2021,12,24,02,13,0.00
2021,12,24,02,14,0.00
2021,12,24,02,15,0.00
2021,12,24,02,16,0.00
2021,12,24,02,17,0.00
2021,12,24,02,18,0.00
2021,12,24,02,19,0.00
2021,12,24,02,20,0.00
2021,12,24,02,21,0.00
2021,12,24,02,22,0.00
2021,12,24,02,23,0.00
2021,12,24,02,24,0.00
2021,12,24,02,25,0.00
2021,12,24,02,26,0.00
2021,12,24,02,27,0.00
2021,12,24,02,28,0.00
2021,12,24,02,29,0.00
2021,12,24,02,30,0.00
2021,12,24,02,31,0.00
2021,12,24,02,32,0.00
2021,12,24,02,33,0.00
2021,12,24,02,34,0.00
2021,12,24,02,35,0.00
2021,12,24,02,36,0.00
2021,12,24,02,37,0.00
2021,12,24,02,38,0.00
2021,12,24,02,39,0.00
2021,12,24,02,40,0.00
2021,12,24,02,41,0.00
2021,12,24,02,42,0.00
2021,12,24,02,43,0.00
2021,12,24,02,44,0.00
2021,12,24,02,45,0.00
2021,12,24,02,46,0.00
2021,12,24,02,47,0.00
2021,12,24,02,48,0.00
2021,12,24,02,49,0.00
2021,12,24,02,50,0.00
2021,12,24,02,51,0.00
2021,12,24,02,52,0.00
2021,12,24,02,53,0.00
2021,12,24,02,54,0.00
2021,12,24,02,55,0.00
2021,12,24,02,56,0.00
2021,12,24,02,57,0.00
2021,12,24,02,58,0.00
2021,12,24,02,59,0.00
2021,12,24,03,00,0.00
2021,12,24,03,01,0.00
2021,12,24,03,02,0.00
2021,12,24,03,03,0.00
2021,12,24,03,04,0.00
2021,12,24,03,05,0.00
2021,12,24,03,06,0.00
2021,12,24,03,07,0.00
2021,12,24,08,31,18.00
2021,12,24,08,32,18.00
2021,12,24,08,33,19.00
2021,12,24,08,34,18.80
2021,12,24,08,35,18.00
2021,12,24,08,36,18.40
2021,12,24,08,37,21.60
2021,12,24,08,38,24.00
2021,12,24,08,39,21.80
2021,12,24,08,40,19.70
2021,12,24,08,41,19.00
2021,12,24,08,42,22.40
2021,12,24,08,43,24.80
2021,12,24,08,44,25.50
2021,12,24,08,45,29.60
2021,12,24,08,46,27.40
2021,12,24,08,47,26.70
2021,12,24,08,48,27.10
2021,12,24,08,49,26.00
2021,12,24,08,50,25.40
2021,12,24,08,51,25.70
2021,12,24,08,52,26.00
2021,12,24,08,53,27.70
2021,12,24,08,54,29.80
2021,12,24,08,55,30.20
2021,12,24,08,56,32.00
2021,12,24,08,57,32.00
2021,12,24,08,58,32.30
2021,12,24,08,59,33.00
2021,12,24,09,00,34.00
2021,12,24,09,01,35.00
2021,12,24,09,02,35.00
2021,12,24,09,03,36.50
2021,12,24,09,04,38.70
2021,12,24,09,05,39.00
2021,12,24,09,06,39.00
2021,12,24,09,07,39.20
2021,12,24,09,08,41.00
2021,12,24,09,09,45.10
2021,12,24,09,10,49.70
2021,12,24,09,11,53.00
2021,12,24,09,12,53.00
2021,12,24,09,13,50.30
2021,12,24,09,14,47.50
2021,12,24,09,15,46.20
2021,12,24,09,16,46.00
2021,12,24,09,17,49.50
2021,12,24,09,18,53.80
2021,12,24,09,19,53.00
2021,12,24,09,20,53.00
2021,12,24,09,21,53.00
2021,12,24,09,22,53.00
2021,12,24,09,23,53.60
2021,12,24,09,24,56.70
2021,12,24,09,25,61.00
2021,12,24,09,26,64.40
2021,12,24,09,27,65.00
2021,12,24,09,28,69.10
2021,12,24,09,29,70.30
2021,12,24,09,30,72.50
2021,12,24,09,31,74.70
2021,12,24,09,32,76.40
2021,12,24,09,33,78.00
2021,12,24,09,34,81.30
2021,12,24,09,35,83.70
2021,12,24,09,36,84.00
2021,12,24,09,37,85.70
2021,12,24,09,38,84.20
2021,12,24,09,39,83.90
2021,12,24,09,40,82.60
2021,12,24,09,41,80.50
2021,12,24,09,42,78.20
2021,12,24,09,43,77.90
2021,12,24,09,44,80.00
2021,12,24,09,45,82.80
2021,12,24,09,46,88.00
2021,12,24,09,47,92.30
2021,12,24,09,48,96.40
2021,12,24,09,49,103.30
2021,12,24,09,50,106.80
2021,12,24,09,51,105.80
2021,12,24,09,52,109.50
2021,12,24,09,53,112.60
2021,12,24,09,54,122.30
2021,12,24,09,55,137.00
2021,12,24,09,56,148.00
2021,12,24,09,57,153.90
2021,12,24,09,58,155.00
2021,12,24,09,59,178.80
2021,12,24,10,00,183.00
2021,12,24,10,01,185.00
2021,12,24,10,02,168.90
2021,12,24,10,03,218.80
2021,12,24,10,04,220.00
2021,12,24,10,05,218.00
2021,12,24,10,06,223.80
2021,12,24,10,07,200.40
2021,12,24,10,08,225.00
2021,12,24,10,09,254.80
2021,12,24,10,10,210.90
2021,12,24,10,11,258.20
2021,12,24,10,12,274.00
2021,12,24,10,13,282.40
2021,12,24,10,14,213.00
2021,12,24,10,15,245.00
2021,12,24,10,16,309.00
2021,12,24,10,17,246.00
2021,12,24,10,18,183.00
2021,12,24,10,19,272.30
2021,12,24,10,20,275.80
2021,12,24,10,21,283.90
2021,12,24,10,22,287.00
2021,12,24,10,23,288.10
2021,12,24,10,24,302.80
2021,12,24,10,25,321.00
2021,12,24,10,26,329.00
2021,12,24,10,27,333.30
2021,12,24,10,28,312.00
2021,12,24,10,29,309.80
2021,12,24,10,30,319.50
2021,12,24,10,31,296.20
2021,12,24,10,32,294.00
2021,12,24,10,33,284.10
2021,12,24,10,34,257.20
2021,12,24,10,35,297.00
2021,12,24,10,36,297.00
2021,12,24,10,37,233.70
2021,12,24,10,38,130.70
2021,12,24,10,39,168.00
2021,12,24,10,40,178.10
2021,12,24,10,41,159.80
2021,12,24,10,42,206.90
2021,12,24,10,43,249.50
2021,12,24,10,44,255.00
2021,12,24,10,45,198.50
2021,12,24,10,46,227.30
2021,12,24,10,47,298.70
2021,12,24,10,48,330.00
2021,12,24,10,49,294.80
2021,12,24,10,50,244.00
2021,12,24,10,51,244.00
2021,12,24,10,52,244.00
2021,12,24,10,53,244.00
2021,12,24,10,54,293.20
2021,12,24,10,55,233.40
2021,12,24,10,56,260.00
2021,12,24,10,57,285.60
2021,12,24,10,58,401.00
2021,12,24,10,59,355.70
2021,12,24,11,00,267.90
2021,12,24,11,01,262.50
2021,12,24,11,02,258.30
2021,12,24,11,03,251.10
2021,12,24,11,04,221.60
2021,12,24,11,05,179.60
2021,12,24,11,06,163.80
2021,12,24,11,07,169.00
2021,12,24,11,08,170.60
2021,12,24,11,09,186.50
2021,12,24,11,10,209.00
2021,12,24,11,11,205.30
2021,12,24,11,12,209.00
2021,12,24,11,13,200.30
2021,12,24,11,14,194.10
2021,12,24,11,15,266.50
2021,12,24,11,16,224.00
2021,12,24,11,17,165.40
2021,12,24,11,18,209.20
2021,12,24,11,19,203.40
2021,12,24,11,20,190.00
2021,12,24,11,21,230.30
2021,12,24,11,22,203.10
2021,12,24,11,23,190.00
2021,12,24,11,24,178.10
2021,12,24,11,25,169.40
2021,12,24,11,26,162.20
2021,12,24,11,27,181.90
2021,12,24,11,28,152.60
2021,12,24,11,29,197.50
2021,12,24,11,30,202.00
2021,12,24,11,31,206.40
2021,12,24,11,32,215.50
2021,12,24,11,33,231.00
2021,12,24,11,34,245.00
2021,12,24,11,35,256.70
2021,12,24,11,36,271.70
2021,12,24,11,37,273.50
2021,12,24,11,38,269.90
2021,12,24,11,39,258.10
2021,12,24,11,40,252.00
2021,12,24,11,41,191.60
2021,12,24,11,42,190.00
2021,12,24,11,43,191.10
2021,12,24,11,44,195.60
2021,12,24,11,45,202.50
2021,12,24,11,46,204.80
2021,12,24,11,47,196.50
2021,12,24,11,48,190.70
2021,12,24,11,49,224.50
2021,12,24,11,50,305.20
2021,12,24,11,51,309.80
2021,12,24,11,52,328.90
2021,12,24,11,53,351.50
2021,12,24,11,54,265.30
2021,12,24,11,55,223.00
2021,12,24,11,56,210.00
2021,12,24,11,57,213.00
2021,12,24,11,58,215.00
2021,12,24,11,59,242.30
2021,12,24,12,00,250.00
2021,12,24,12,01,250.00
2021,12,24,12,02,459.00
2021,12,24,12,03,419.00
2021,12,24,12,04,251.00
2021,12,24,12,05,283.00
2021,12,24,12,06,283.00
2021,12,24,12,07,285.50
2021,12,24,12,08,276.80
2021,12,24,12,09,236.30
2021,12,24,12,10,221.00
2021,12,24,12,11,221.00
2021,12,24,12,12,216.50
2021,12,24,12,13,208.50
2021,12,24,12,14,206.20
2021,12,24,12,15,211.60
2021,12,24,12,16,201.50
2021,12,24,12,17,204.00
2021,12,24,12,18,212.00
2021,12,24,12,19,215.90
2021,12,24,12,20,204.10
2021,12,24,12,21,193.80
2021,12,24,12,22,178.20
2021,12,24,12,23,163.60
2021,12,24,12,24,214.10
2021,12,24,12,25,265.00
2021,12,24,12,26,219.50
2021,12,24,12,27,97.70
2021,12,24,12,28,95.30
2021,12,24,12,29,90.40
2021,12,24,12,30,83.90
2021,12,24,12,31,78.30
2021,12,24,12,32,74.70
2021,12,24,12,33,74.00
2021,12,24,12,34,74.00
2021,12,24,12,35,74.00
2021,12,24,12,36,74.40
2021,12,24,12,37,76.00
2021,12,24,12,38,78.50
2021,12,24,12,39,82.10
2021,12,24,12,40,82.00
2021,12,24,12,41,83.60
2021,12,24,12,42,84.00
2021,12,24,12,43,81.70
2021,12,24,12,44,81.00
2021,12,24,12,45,72.80
2021,12,24,12,46,69.00
2021,12,24,12,47,67.90
2021,12,24,12,48,63.00
2021,12,24,12,49,63.00
2021,12,24,12,50,63.80
2021,12,24,12,51,67.00
2021,12,24,12,52,69.60
2021,12,24,12,53,72.70
2021,12,24,12,54,76.30
2021,12,24,12,55,80.40
2021,12,24,12,56,85.50
2021,12,24,12,57,91.00
2021,12,24,12,58,93.00
2021,12,24,12,59,102.80
2021,12,24,13,00,104.70
2021,12,24,13,01,104.00
2021,12,24,13,02,100.50
2021,12,24,13,03,93.50
2021,12,24,13,04,86.20
2021,12,24,13,05,84.00
2021,12,24,13,06,73.70
2021,12,24,13,07,73.80
2021,12,24,13,08,77.20
2021,12,24,13,09,79.00
2021,12,24,13,10,79.00
2021,12,24,13,11,79.00
2021,12,24,13,12,79.00
2021,12,24,13,13,77.60
2021,12,24,13,14,73.60
2021,12,24,13,15,72.00
2021,12,24,13,16,70.50
2021,12,24,13,17,70.00
2021,12,24,13,18,69.10
2021,12,24,13,19,67.20
2021,12,24,13,20,69.00
2021,12,24,13,21,69.80
2021,12,24,13,22,73.30
2021,12,24,13,23,76.40
2021,12,24,13,24,79.00
2021,12,24,13,25,82.80
2021,12,24,13,26,98.30
2021,12,24,13,27,117.20
2021,12,24,13,28,110.70
2021,12,24,13,29,121.70
2021,12,24,13,30,121.00
2021,12,24,13,31,129.70
2021,12,24,13,32,157.30
2021,12,24,13,33,128.00
2021,12,24,13,34,129.50
2021,12,24,13,35,136.50
2021,12,24,13,36,145.60
2021,12,24,13,37,155.00
2021,12,24,13,38,164.90
2021,12,24,13,39,183.30
2021,12,24,13,40,191.50
2021,12,24,13,41,206.00
2021,12,24,13,42,216.30
2021,12,24,13,43,290.80
2021,12,24,13,44,325.00
2021,12,24,13,45,325.00
2021,12,24,13,46,382.00
2021,12,24,13,47,416.50
2021,12,24,13,48,368.30
2021,12,24,13,49,376.00
2021,12,24,13,50,301.60
2021,12,24,13,51,340.70
2021,12,24,13,52,287.00
2021,12,24,13,53,287.00
2021,12,24,13,54,292.40
2021,12,24,13,55,337.90
2021,12,24,13,56,393.30
2021,12,24,13,57,382.00
2021,12,24,13,58,377.10
2021,12,24,13,59,375.30
2021,12,24,14,00,371.70
2021,12,24,14,01,319.60
2021,12,24,14,02,312.80
2021,12,24,14,03,320.00
2021,12,24,14,04,287.20
2021,12,24,14,05,144.20
2021,12,24,14,06,130.10
2021,12,24,14,07,119.30
2021,12,24,14,08,114.00
2021,12,24,14,09,108.50
2021,12,24,14,10,101.30
2021,12,24,14,11,98.50
2021,12,24,14,12,95.50
2021,12,24,14,13,95.00
2021,12,24,14,14,92.80
2021,12,24,14,15,91.40
2021,12,24,14,16,93.00
2021,12,24,14,17,93.00
2021,12,24,14,18,93.00
2021,12,24,14,19,95.60
2021,12,24,14,20,98.00
2021,12,24,14,21,106.90
2021,12,24,14,22,112.60
2021,12,24,14,23,109.70
2021,12,24,14,24,104.50
2021,12,24,14,25,94.00
2021,12,24,14,26,82.50
2021,12,24,14,27,74.10
2021,12,24,14,28,67.00
2021,12,24,14,29,63.00
2021,12,24,14,30,63.00
2021,12,24,14,31,63.00
2021,12,24,14,32,63.00
2021,12,24,14,33,62.20
2021,12,24,14,34,57.10
2021,12,24,14,35,56.00
2021,12,24,14,36,46.70
2021,12,24,14,37,43.20
2021,12,24,14,38,40.00
2021,12,24,14,39,40.00
2021,12,24,14,40,40.00
2021,12,24,14,41,40.00
2021,12,24,14,42,40.00
2021,12,24,14,43,40.00
2021,12,24,14,44,39.20
2021,12,24,14,45,37.30
2021,12,24,14,46,39.00
2021,12,24,14,47,42.50
2021,12,24,14,48,47.70
2021,12,24,14,49,51.50
2021,12,24,14,50,53.00
2021,12,24,14,51,52.20
2021,12,24,14,52,50.00
2021,12,24,14,53,50.20
2021,12,24,14,54,52.40
2021,12,24,14,55,53.00
2021,12,24,14,56,51.30
2021,12,24,14,57,49.10
2021,12,24,14,58,49.40
2021,12,24,14,59,53.20
2021,12,24,15,00,52.60
2021,12,24,15,01,45.00
2021,12,24,15,02,33.30
2021,12,24,15,03,27.00
2021,12,24,15,04,26.00
2021,12,24,15,05,28.70
2021,12,24,15,06,33.90
2021,12,24,15,07,36.70
2021,12,24,15,08,35.20
2021,12,24,15,09,31.50
2021,12,24,15,10,25.80
2021,12,24,15,11,25.00
2021,12,24,15,12,25.00
2021,12,24,15,13,25.00
2021,12,24,15,14,25.00
2021,12,24,15,15,29.10
2021,12,24,15,16,32.00
2021,12,24,15,17,30.50
2021,12,24,15,18,30.00
2021,12,24,15,19,23.60
2021,12,24,15,20,20.80
2021,12,24,15,21,19.00
2021,12,24,15,22,19.00
2021,12,24,15,23,19.70
2021,12,24,15,24,21.00
2021,12,24,15,25,21.00
2021,12,24,15,26,21.00
2021,12,24,15,27,22.40
2021,12,24,15,28,24.50
2021,12,24,15,29,25.90
2021,12,24,15,30,25.00
2021,12,24,15,31,25.00
2021,12,24,15,32,25.20
2021,12,24,15,33,26.00
2021,12,24,15,34,26.00
2021,12,24,15,35,26.00
2021,12,24,15,36,25.50
2021,12,24,15,37,23.80
2021,12,24,15,38,23.00
2021,12,24,15,39,23.00
2021,12,24,15,40,23.00
2021,12,24,15,41,21.10
2021,12,24,15,42,20.80
2021,12,24,15,43,18.80
2021,12,24,15,44,18.00
2021,12,24,15,45,17.30
2021,12,24,15,46,16.00
2021,12,24,15,47,16.00
2021,12,24,15,48,16.00
2021,12,24,15,49,14.60
2021,12,24,15,50,14.00
2021,12,24,15,51,14.00
2021,12,24,15,52,14.00
2021,12,24,15,53,14.00
2021,12,24,15,54,13.60
2021,12,24,15,55,12.00
2021,12,24,15,56,12.00
2021,12,24,15,57,11.60
2021,12,24,15,58,11.00
2021,12,24,15,59,11.00
2021,12,24,16,00,11.00
2021,12,24,16,01,11.00
2021,12,24,16,02,11.00
2021,12,24,16,03,9.10
2021,12,24,16,04,9.00
2021,12,24,16,05,9.00
2021,12,24,16,06,9.00
2021,12,24,16,07,8.30
2021,12,24,16,08,7.00
2021,12,24,16,09,7.00
2021,12,24,16,10,7.00
2021,12,24,16,11,7.00
2021,12,24,16,12,5.50
2021,12,24,16,13,5.00
2021,12,24,16,14,5.00
2021,12,24,16,15,5.00
2021,12,24,16,16,4.10
2021,12,24,16,17,0.00
2021,12,24,16,18,0.00
2021,12,24,16,19,0.00
2021,12,24,16,20,0.00
2021,12,24,16,21,0.00
2021,12,24,16,22,0.00
2021,12,24,16,23,0.00
2021,12,24,16,24,0.00
2021,12,24,16,25,0.00
2021,12,24,16,26,0.00
2021,12,24,16,27,0.00
2021,12,24,16,28,0.00
2021,12,24,16,29,0.00
2021,12,24,16,30,0.00
2021,12,24,16,31,0.00
2021,12,24,16,32,0.00
2021,12,24,16,33,0.00
2021,12,24,16,34,0.00
2021,12,24,16,35,0.00
2021,12,24,16,36,0.00
2021,12,24,16,37,0.00
2021,12,24,16,38,0.00
2021,12,24,16,39,0.00
2021,12,24,16,40,0.00
2021,12,24,16,41,0.00
2021,12,24,16,42,0.00
2021,12,24,16,43,0.00
2021,12,24,16,44,0.00
2021,12,24,16,45,0.00
2021,12,24,16,46,0.00
2021,12,24,16,47,0.00
2021,12,24,16,48,0.00
2021,12,24,16,49,0.00
2021,12,24,16,50,0.00
2021,12,24,16,51,0.00
2021,12,24,16,52,0.00
2021,12,24,16,53,0.00
2021,12,24,16,54,0.00
2021,12,24,16,55,0.00
2021,12,24,16,56,0.00
2021,12,24,16,57,0.00
2021,12,24,16,58,0.00
2021,12,24,16,59,0.00
2021,12,24,17,00,0.00
2021,12,24,17,01,0.00
2021,12,24,17,02,0.00
2021,12,24,17,03,0.00
2021,12,24,17,04,0.00
2021,12,24,17,05,0.00
2021,12,24,17,06,0.00
2021,12,24,17,07,0.00
2021,12,24,17,08,0.00
2021,12,24,17,09,0.00
2021,12,24,17,10,0.00
2021,12,24,17,11,0.00
2021,12,24,17,12,0.00
2021,12,24,17,13,0.00
2021,12,24,17,14,0.00
2021,12,24,17,15,0.00
2021,12,24,17,16,0.00
2021,12,24,17,17,0.00
2021,12,24,17,18,0.00
2021,12,24,17,19,0.00
2021,12,24,17,20,0.00
2021,12,24,17,21,0.00
2021,12,24,17,22,0.00
2021,12,24,17,23,0.00
2021,12,24,17,24,0.00
2021,12,24,17,25,0.00
2021,12,24,17,26,0.00
2021,12,24,17,27,0.00
2021,12,24,17,28,0.00
2021,12,24,17,29,0.00
2021,12,24,17,30,0.00
2021,12,24,17,31,0.00
2021,12,24,17,32,0.00
2021,12,24,17,33,0.00
2021,12,24,17,34,0.00
2021,12,24,17,35,0.00
2021,12,24,17,36,0.00
2021,12,24,17,37,0.00
2021,12,24,17,38,0.00
2021,12,24,17,39,0.00
2021,12,24,17,40,0.00
2021,12,24,17,41,0.00
2021,12,24,17,42,0.00
2021,12,24,17,43,0.00
2021,12,24,17,44,0.00
2021,12,24,17,45,0.00
2021,12,24,17,46,0.00
2021,12,24,17,47,0.00
2021,12,24,17,48,0.00
2021,12,24,17,49,0.00
2021,12,24,17,50,0.00
2021,12,24,17,51,0.00
2021,12,24,17,52,0.00
2021,12,24,17,53,0.00
2021,12,24,17,54,0.00
2021,12,24,17,55,0.00
2021,12,24,17,56,0.00
2021,12,24,17,57,0.00
2021,12,24,17,58,0.00
2021,12,24,17,59,0.00
2021,12,24,18,00,0.00
2021,12,24,18,01,0.00
2021,12,24,18,02,0.00
2021,12,24,18,03,0.00
2021,12,24,18,04,0.00
2021,12,24,18,05,0.00
2021,12,24,18,06,0.00
2021,12,24,18,07,0.00
2021,12,24,18,08,0.00
2021,12,24,18,09,0.00
2021,12,24,18,10,0.00
2021,12,24,18,11,0.00
2021,12,24,18,12,0.00
2021,12,24,18,13,0.00
2021,12,24,18,14,0.00
2021,12,24,18,15,0.00
2021,12,24,18,16,0.00
2021,12,24,18,17,0.00
2021,12,24,18,18,0.00
2021,12,24,18,19,0.00
2021,12,24,18,20,0.00
2021,12,24,18,21,0.00
2021,12,24,18,22,0.00
2021,12,24,18,23,0.00
2021,12,24,18,24,0.00
2021,12,24,18,25,0.00
2021,12,24,18,26,0.00
2021,12,24,18,27,0.00
2021,12,24,18,28,0.00
2021,12,24,18,29,0.00
2021,12,24,18,30,0.00
2021,12,24,18,31,0.00
2021,12,24,18,32,0.00
2021,12,24,18,33,0.00
2021,12,24,18,34,0.00
2021,12,24,18,35,0.00
2021,12,24,18,36,0.00
2021,12,24,18,37,0.00
2021,12,24,18,38,0.00
2021,12,24,18,39,0.00
2021,12,24,18,40,0.00
2021,12,24,18,41,0.00
2021,12,24,18,42,0.00
2021,12,24,18,43,0.00
2021,12,24,18,44,0.00
2021,12,24,18,45,0.00
2021,12,24,18,46,0.00
2021,12,24,18,47,0.00
2021,12,24,18,48,0.00
2021,12,24,18,49,0.00
2021,12,24,18,50,0.00
2021,12,24,18,51,0.00
2021,12,24,18,52,0.00
2021,12,24,18,53,0.00
2021,12,24,18,54,0.00
2021,12,24,18,55,0.00
2021,12,24,18,56,0.00
2021,12,24,18,57,0.00
2021,12,24,18,58,0.00
2021,12,24,18,59,0.00
2021,12,24,19,00,0.00
2021,12,24,19,01,0.00
2021,12,24,19,02,0.00
2021,12,24,19,03,0.00
2021,12,24,19,04,0.00
2021,12,24,19,05,0.00
2021,12,24,19,06,0.00
2021,12,24,19,07,0.00
2021,12,24,19,08,0.00
2021,12,24,19,09,0.00
2021,12,24,19,10,0.00
2021,12,24,19,11,0.00
2021,12,24,19,12,0.00
2021,12,24,19,13,0.00
2021,12,24,19,14,0.00
2021,12,24,19,15,0.00
2021,12,24,19,16,0.00
2021,12,24,19,17,0.00
2021,12,24,19,18,0.00
2021,12,24,19,19,0.00
2021,12,24,19,20,0.00
2021,12,24,19,21,0.00
2021,12,24,19,22,0.00
2021,12,24,19,23,0.00
2021,12,24,19,24,0.00
2021,12,24,19,25,0.00
2021,12,24,19,26,0.00
2021,12,24,19,27,0.00
2021,12,24,19,28,0.00
2021,12,24,19,29,0.00
2021,12,24,19,30,0.00
2021,12,24,19,31,0.00
2021,12,24,19,32,0.00
2021,12,24,19,33,0.00
2021,12,24,19,34,0.00
2021,12,24,19,35,0.00
2021,12,24,19,36,0.00
2021,12,24,19,37,0.00
2021,12,24,19,38,0.00
2021,12,24,19,39,0.00
2021,12,24,19,40,0.00
2021,12,24,19,41,0.00
2021,12,24,19,42,0.00
2021,12,24,19,43,0.00
2021,12,24,19,44,0.00
2021,12,24,19,45,0.00
2021,12,24,19,46,0.00
2021,12,24,19,47,0.00
2021,12,24,19,48,0.00
2021,12,24,19,49,0.00
2021,12,24,19,50,0.00
2021,12,24,19,51,0.00
2021,12,24,19,52,0.00
2021,12,24,19,53,0.00
2021,12,24,19,54,0.00
2021,12,24,19,55,0.00
2021,12,24,19,56,0.00
2021,12,24,19,57,0.00
2021,12,24,19,58,0.00
2021,12,24,19,59,0.00
2021,12,24,20,00,0.00
2021,12,24,20,01,0.00
2021,12,24,20,02,0.00
2021,12,24,20,03,0.00
2021,12,24,20,04,0.00
2021,12,24,20,05,0.00
2021,12,24,20,06,0.00
2021,12,24,20,07,0.00
2021,12,24,20,08,0.00
2021,12,24,20,09,0.00
2021,12,24,20,10,0.00
2021,12,24,20,11,0.00
2021,12,24,20,12,0.00
2021,12,24,20,13,0.00
2021,12,24,20,14,0.00
2021,12,24,20,15,0.00
2021,12,24,20,16,0.00
2021,12,24,20,17,0.00
2021,12,24,20,18,0.00
2021,12,24,20,19,0.00
2021,12,24,20,20,0.00
2021,12,24,20,21,0.00
2021,12,24,20,22,0.00
2021,12,24,20,23,0.00
2021,12,24,20,24,0.00
2021,12,24,20,25,0.00
2021,12,24,20,26,0.00
2021,12,24,20,27,0.00
2021,12,24,20,28,0.00
2021,12,24,20,29,0.00
2021,12,24,20,30,0.00
2021,12,24,20,31,0.00
2021,12,24,20,32,0.00
2021,12,24,20,33,0.00
2021,12,24,20,34,0.00
2021,12,24,20,35,0.00
2021,12,24,20,36,0.00
2021,12,24,20,37,0.00
2021,12,24,20,38,0.00
2021,12,24,20,39,0.00
2021,12,24,20,40,0.00
2021,12,24,20,41,0.00
2021,12,24,20,42,0.00
2021,12,24,20,43,0.00
2021,12,24,20,44,0.00
2021,12,24,20,45,0.00
2021,12,24,20,46,0.00
2021,12,24,20,47,0.00
2021,12,24,20,48,0.00
2021,12,24,20,49,0.00
2021,12,24,20,50,0.00
2021,12,24,20,51,0.00
2021,12,24,20,52,0.00
2021,12,24,20,53,0.00
2021,12,24,20,54,0.00
2021,12,24,20,55,0.00
2021,12,24,20,56,0.00
2021,12,24,20,57,0.00
2021,12,24,20,58,0.00
2021,12,24,20,59,0.00
2021,12,24,21,00,0.00
2021,12,24,21,01,0.00
2021,12,24,21,02,0.00
2021,12,24,21,03,0.00
2021,12,24,21,04,0.00
2021,12,24,21,05,0.00
2021,12,24,21,06,0.00
2021,12,24,21,07,0.00
2021,12,24,21,08,0.00
2021,12,24,21,09,0.00
2021,12,24,21,10,0.00
2021,12,24,21,11,0.00
2021,12,24,21,12,0.00
2021,12,24,21,13,0.00
2021,12,24,21,14,0.00
2021,12,24,21,15,0.00
2021,12,24,21,16,0.00
2021,12,24,21,17,0.00
2021,12,24,21,18,0.00
2021,12,24,21,19,0.00
2021,12,24,21,20,0.00
2021,12,24,21,21,0.00
2021,12,24,21,22,0.00
2021,12,24,21,23,0.00
2021,12,24,21,24,0.00
2021,12,24,21,25,0.00
2021,12,24,21,26,0.00
2021,12,24,21,27,0.00
2021,12,24,21,28,0.00
2021,12,24,21,29,0.00
2021,12,24,21,30,0.00
2021,12,24,21,31,0.00
2021,12,24,21,32,0.00
2021,12,24,21,33,0.00
2021,12,24,21,34,0.00
2021,12,24,21,35,0.00
2021,12,24,21,36,0.00
2021,12,24,21,37,0.00
2021,12,24,21,38,0.00
2021,12,24,21,39,0.00
2021,12,24,21,40,0.00
2021,12,24,21,41,0.00
2021,12,24,21,42,0.00
2021,12,24,21,43,0.00
2021,12,24,21,44,0.00
2021,12,24,21,45,0.00
2021,12,24,21,46,0.00
2021,12,24,21,47,0.00
2021,12,24,21,48,0.00
2021,12,24,21,49,0.00
2021,12,24,21,50,0.00
2021,12,24,21,51,0.00
2021,12,24,21,52,0.00
2021,12,24,21,53,0.00
2021,12,24,21,54,0.00
2021,12,24,21,55,0.00
2021,12,24,21,56,0.00
2021,12,24,21,57,0.00
2021,12,24,21,58,0.00
2021,12,24,21,59,0.00
2021,12,24,22,00,0.00
2021,12,24,22,01,0.00
2021,12,24,22,02,0.00
2021,12,24,22,03,0.00
2021,12,24,22,04,0.00
2021,12,24,22,05,0.00
2021,12,24,22,06,0.00
2021,12,24,22,07,0.00
2021,12,24,22,08,0.00
2021,12,24,22,09,0.00
2021,12,24,22,10,0.00
2021,12,24,22,11,0.00
2021,12,24,22,12,0.00
2021,12,24,22,13,0.00
2021,12,24,22,14,0.00
2021,12,24,22,15,0.00
2021,12,24,22,16,0.00
2021,12,24,22,17,0.00
2021,12,24,22,18,0.00
2021,12,24,22,19,0.00
2021,12,24,22,20,0.00
2021,12,24,22,21,0.00
2021,12,24,22,22,0.00
2021,12,24,22,23,0.00
2021,12,24,22,24,0.00
2021,12,24,22,25,0.00
2021,12,24,22,26,0.00
2021,12,24,22,27,0.00
2021,12,24,22,28,0.00
2021,12,24,22,29,0.00
2021,12,24,22,30,0.00
2021,12,24,22,31,0.00
2021,12,24,22,32,0.00
2021,12,24,22,33,0.00
2021,12,24,22,34,0.00
2021,12,24,22,35,0.00
2021,12,24,22,36,0.00
2021,12,24,22,37,0.00
2021,12,24,22,38,0.00
2021,12,24,22,39,0.00
2021,12,24,22,40,0.00
2021,12,24,22,41,0.00
2021,12,24,22,42,0.00
2021,12,24,22,43,0.00
2021,12,24,22,44,0.00
2021,12,24,22,45,0.00
2021,12,24,22,46,0.00
2021,12,24,22,47,0.00
2021,12,24,22,48,0.00
2021,12,24,22,49,0.00
2021,12,24,22,50,0.00
2021,12,24,22,51,0.00
2021,12,24,22,52,0.00
2021,12,24,22,53,0.00
2021,12,24,22,54,0.00
2021,12,24,22,55,0.00
2021,12,24,22,56,0.00
2021,12,24,22,57,0.00
2021,12,24,22,58,0.00
2021,12,24,22,59,0.00